Probability
45 61 71 68 61 61 55 65 68 68 74 77 74 71 74 71 71 71 68 71 74 71 77 71 58 58 48 52 52 48 45 39 39 45 55 58 48 42 29 26 35 32 45
26 48 68 68 65 61 61 71 71 71 71 77 81 84 74 68 71 65 58 55 61 58 48 52 52 48 45 48 48 42 39 32 45 39 45 52 48 42 35 29 39 35 45
26 45 61 71 68 68 74 74 71 77 77 77 74 77 71 65 65 58 52 52 52 45 39 52 48 48 39 39 39 23 32 32 35 42 45 29 23 39 42 45 48 48 48
23 26 42 74 71 74 71 74 74 74 77 81 74 68 71 61 58 52 42 48 45 52 45 45 39 32 35 35 29 23 29 32 29 48 32 16 10 29 35 35 35 35 35
19 29 58 68 68 68 68 74 74 84 77 74 71 68 68 65 58 55 45 45 48 52 45 45 39 35 29 29 29 26 32 29 39 35 23 19 16 39 39 32 23 32 39
29 19 42 71 68 68 71 74 71 74 68 71 68 65 58 61 55 58 52 42 45 55 48 48 32 32 29 23 26 26 32 35 45 26 26 26 13 45 52 32 29 29 32
29 29 45 68 71 74 71 68 68 71 71 71 68 71 65 65 58 58 52 52 48 48 48 35 26 26 23 19 19 19 26 42 29 23 23 19 26 52 48 39 39 29 29
39 42 52 74 74 77 71 65 65 68 71 74 68 65 58 52 58 58 52 48 48 48 52 32 23 26 16 19 23 26 26 45 13 13 16 16 35 42 39 35 42 29 32
29 35 52 55 71 77 71 71 71 71 74 74 71 65 52 52 58 55 48 48 52 45 35 35 23 23 23 19 26 29 35 52 23 13 13 19 39 48 35 42 35 35 35
23 35 45 48 52 48 55 68 74 68 68 71 74 65 61 61 61 58 61 61 58 48 45 39 32 29 26 29 35 32 45 48 13 13 16 19 45 45 35 35 32 39 32
29 42 45 48 45 45 48 58 68 68 71 71 71 68 71 58 52 55 52 74 65 61 45 39 45 39 45 35 39 55 52 13 16 13 13 19 39 39 35 35 29 29 29
35 39 32 42 45 45 42 65 68 58 68 68 68 65 74 74 68 45 55 77 68 58 55 55 55 52 48 26 35 52 26 19 16 13 16 39 48 42 35 32 29 29 35
23 29 35 42 52 52 55 58 65 65 65 71 68 68 74 74 65 48 52 61 58 52 48 42 45 26 32 45 42 39 32 16 10 6 13 42 42 35 42 35 29 32 29
42 35 35 45 58 68 71 68 58 61 65 55 65 71 71 77 74 68 68 65 58 55 61 61 58 42 48 48 45 42 32 32 16 13 23 45 45 39 39 35 32 32 26
45 39 42 61 68 74 81 81 52 61 68 58 74 74 74 77 74 74 77 74 68 61 65 74 68 71 58 48 45 42 35 26 26 23 16 52 52 42 45 35 26 29 32
45 45 52 55 68 74 77 81 71 58 68 61 68 68 77 74 81 71 77 77 77 77 71 71 77 77 74 71 71 68 55 39 42 45 32 26 48 52 52 48 39 39 35
58 55 58 55 65 77 71 74 68 68 58 58 61 74 74 74 74 68 77 77 77 74 74 77 81 77 74 71 68 65 61 65 45 61 42 29 29 45 61 55 52 39 35
52 68 61 52 61 77 77 74 61 65 71 74 74 71 74 81 74 84 84 87 87 84 77 81 77 77 77 77 71 77 71 65 65 65 58 55 42 26 35 48 45 45 39
65 77 74 74 74 68 77 71 71 68 74 68 71 68 74 74 71 74 87 87 84 84 81 74 77 81 77 77 71 71 65 65 61 55 55 55 42 42 35 26 42 52 45
61 81 87 84 81 74 74 81 77 71 68 68 68 68 71 68 68 77 84 84 84 84 74 81 77 81 77 74 58 58 61 58 58 58 52 45 45 42 42 32 32 35 48
68 81 90 84 90 87 77 74 77 65 68 71 71 68 71 74 71 74 81 81 84 81 81 74 77 74 77 74 68 68 71 61 52 48 55 48 42 45 45 48 39 39 29
68 74 81 81 87 87 81 84 81 77 68 74 68 68 65 65 71 58 84 84 81 81 77 71 74 74 61 71 68 68 68 68 58 42 58 52 45 52 48 39 42 42 35
68 71 68 87 87 87 81 74 77 77 77 74 61 68 71 68 68 68 65 81 81 71 74 71 74 71 71 71 74 74 61 52 65 55 52 52 52 52 48 48 45 55 48
45 58 77 84 81 87 81 74 77 71 68 71 71 61 61 65 61 58 58 68 77 81 81 77 74 71 65 68 68 68 74 71 55 52 45 55 55 55 52 32 42 45 48
39 52 77 84 84 84 77 71 68 68 68 71 71 68 74 68 71 68 71 71 74 74 77 77 77 71 77 77 71 77 58 71 58 48 39 45 42 42 45 48 42 45 48
39 48 65 84 84 81 81 77 74 71 71 71 65 68 68 71 68 68 68 77 71 65 74 71 71 68 74 71 77 77 65 55 48 52 39 45 42 39 35 39 48 45 42
Height
5875 5875 5875 5876 5876 5877 5877 5877 5877 5878 5878 5878 5879 5879 5879 5879 5880 5880 5880 5880 5880 5880 5880 5881 5881 5882 5882 5883 5883 5884 5884 5885 5886 5887 5887 5888 5889 5890 5890 5890 5890 5891 5891
5876 5876 5876 5877 5877 5878 5878 5878 5878 5879 5879 5879 5880 5880 5880 5880 5881 5881 5881 5881 5881 5881 5881 5881 5881 5881 5882 5882 5883 5884 5884 5885 5886 5887 5887 5888 5889 5890 5890 5890 5890 5890 5891
5877 5877 5877 5878 5878 5879 5879 5879 5879 5879 5880 5880 5880 5881 5881 5881 5881 5882 5882 5882 5882 5882 5882 5881 5881 5881 5881 5882 5883 5883 5884 5885 5886 5886 5887 5888 5889 5889 5890 5890 5890 5890 5891
5878 5878 5878 5879 5879 5879 5880 5880 5880 5880 5881 5881 5881 5881 5882 5882 5882 5882 5882 5882 5882 5882 5882 5882 5882 5881 5881 5881 5882 5883 5884 5885 5886 5886 5887 5888 5888 5889 5889 5890 5890 5890 5890
5879 5879 5879 5879 5880 5880 5880 5881 5881 5881 5882 5882 5882 5882 5882 5883 5882 5883 5883 5883 5883 5883 5883 5882 5882 5881 5881 5881 5881 5882 5883 5884 5885 5886 5887 5888 5888 5889 5889 5889 5889 5890 5890
5880 5880 5880 5880 5881 5881 5881 5882 5882 5882 5882 5883 5883 5883 5883 5883 5883 5883 5883 5884 5884 5884 5884 5883 5882 5881 5881 5880 5881 5882 5884 5885 5885 5886 5887 5888 5888 5888 5889 5889 5889 5889 5889
5880 5881 5881 5881 5881 5882 5882 5882 5883 5883 5883 5884 5884 5884 5884 5885 5884 5885 5884 5884 5885 5885 5884 5884 5883 5881 5882 5882 5882 5883 5884 5885 5886 5887 5887 5888 5888 5888 5888 5888 5888 5889 5889
5881 5881 5881 5881 5882 5882 5883 5883 5883 5884 5884 5885 5884 5885 5885 5886 5886 5885 5885 5886 5886 5885 5885 5884 5884 5883 5883 5883 5883 5884 5885 5885 5886 5887 5887 5888 5888 5888 5888 5888 5888 5888 5888
5882 5882 5883 5883 5883 5883 5884 5884 5884 5885 5885 5885 5886 5886 5886 5886 5886 5887 5887 5886 5886 5886 5886 5886 5885 5885 5884 5884 5884 5885 5885 5886 5886 5887 5887 5888 5888 5888 5888 5888 5888 5888 5888
5883 5883 5883 5884 5884 5884 5884 5885 5885 5885 5886 5886 5886 5887 5887 5887 5887 5888 5888 5887 5887 5887 5887 5886 5886 5886 5885 5885 5885 5885 5886 5886 5886 5887 5887 5888 5888 5888 5888 5888 5888 5888 5888
5884 5884 5884 5884 5885 5885 5885 5885 5886 5886 5886 5887 5887 5888 5888 5888 5888 5888 5888 5888 5888 5887 5887 5887 5887 5886 5886 5885 5885 5885 5886 5886 5887 5887 5887 5888 5888 5888 5888 5888 5887 5887 5887
5885 5884 5885 5885 5885 5886 5886 5886 5886 5887 5887 5887 5888 5888 5889 5889 5889 5889 5889 5888 5888 5888 5888 5888 5887 5887 5886 5886 5885 5885 5886 5886 5887 5887 5887 5887 5887 5887 5887 5887 5887 5887 5887
5886 5885 5885 5885 5886 5886 5886 5887 5887 5887 5887 5887 5888 5889 5889 5889 5889 5889 5889 5889 5889 5888 5888 5888 5888 5887 5887 5886 5885 5885 5885 5886 5887 5887 5887 5887 5887 5887 5887 5887 5887 5886 5886
5887 5887 5886 5886 5886 5887 5887 5887 5888 5888 5888 5888 5889 5889 5889 5890 5890 5890 5890 5890 5890 5889 5889 5888 5888 5888 5887 5886 5885 5885 5886 5886 5887 5887 5887 5887 5887 5887 5886 5886 5886 5886 5886
5888 5888 5888 5887 5887 5887 5887 5887 5887 5888 5889 5889 5889 5889 5889 5890 5890 5890 5890 5890 5890 5890 5889 5889 5889 5888 5887 5886 5886 5885 5886 5886 5887 5887 5887 5887 5887 5886 5886 5885 5885 5885 5885
5890 5889 5889 5888 5888 5888 5888 5887 5887 5888 5888 5889 5889 5890 5890 5890 5890 5890 5890 5890 5890 5890 5889 5889 5889 5888 5888 5887 5886 5886 5886 5886 5887 5887 5887 5886 5886 5886 5885 5884 5884 5884 5884
5891 5890 5890 5889 5889 5888 5888 5888 5888 5888 5889 5889 5889 5890 5890 5890 5890 5891 5891 5890 5890 5890 5890 5889 5889 5889 5888 5887 5887 5887 5887 5887 5887 5886 5886 5886 5885 5885 5884 5884 5883 5883 5882
5892 5892 5891 5890 5890 5889 5889 5889 5889 5889 5889 5890 5890 5890 5890 5890 5891 5891 5891 5891 5890 5890 5890 5890 5889 5889 5888 5888 5887 5887 5886 5886 5886 5886 5885 5885 5884 5884 5883 5883 5882 5882 5881
5893 5892 5892 5891 5891 5890 5890 5890 5890 5890 5890 5890 5890 5890 5890 5890 5890 5890 5890 5890 5890 5890 5890 5890 5889 5889 5888 5888 5887 5887 5886 5886 5885 5885 5884 5884 5882 5882 5881 5881 5880 5880 5879
5894 5893 5892 5892 5891 5891 5891 5891 5891 5891 5890 5890 5890 5890 5890 5890 5890 5890 5890 5890 5890 5890 5889 5889 5889 5888 5888 5887 5887 5886 5885 5885 5884 5884 5883 5882 5880 5880 5880 5879 5879 5878 5877
5895 5894 5894 5893 5893 5892 5892 5892 5891 5891 5891 5891 5890 5890 5890 5890 5890 5890 5890 5890 5889 5889 5889 5889 5888 5888 5888 5887 5886 5886 5885 5884 5883 5882 5881 5881 5879 5879 5878 5877 5877 5876 5875
5897 5896 5895 5894 5894 5893 5893 5892 5891 5891 5891 5890 5890 5890 5890 5890 5890 5890 5890 5890 5889 5889 5889 5888 5888 5887 5886 5886 5885 5885 5884 5883 5882 5881 5880 5879 5878 5877 5876 5875 5874 5873 5872
5897 5896 5896 5895 5894 5894 5893 5892 5891 5891 5891 5890 5890 5890 5890 5890 5890 5889 5889 5889 5889 5889 5888 5887 5887 5886 5885 5885 5884 5883 5882 5881 5880 5879 5878 5876 5875 5874 5873 5872 5871 5870 5869
5897 5896 5896 5895 5894 5894 5893 5892 5891 5891 5890 5890 5890 5889 5889 5889 5889 5889 5889 5888 5888 5887 5887 5886 5885 5885 5884 5883 5882 5881 5881 5879 5878 5877 5876 5874 5873 5872 5870 5869 5868 5867 5866
5897 5896 5896 5895 5894 5894 5893 5892 5891 5891 5890 5889 5889 5888 5888 5888 5888 5887 5887 5887 5886 5886 5885 5884 5884 5883 5882 5881 5880 5879 5878 5877 5876 5874 5873 5872 5871 5869 5867 5866 5865 5863 5862
5896 5896 5895 5895 5894 5893 5892 5892 5891 5890 5890 5889 5888 5887 5887 5886 5886 5886 5885 5885 5884 5884 5883 5882 5881 5880 5879 5878 5877 5876 5875 5874 5873 5872 5870 5869 5867 5866 5864 5863 5861 5860 5858
Wind_Speed
3 4 5 4 4 4 4 3 4 4 5 4 4 3 2 3 3 4 4 4 3 3 3 3 3 3 4 4 4 3 3 3 3 3 2 1 1 1 0 0 1 1 2
3 5 5 4 4 4 3 3 4 5 5 4 4 3 3 3 3 4 4 3 3 3 2 2 2 3 3 3 3 4 4 3 3 3 2 1 1 1 0 0 1 2 3
3 4 4 5 4 4 3 3 3 4 5 4 4 3 3 3 3 3 3 2 2 2 2 2 2 2 2 2 3 3 4 4 3 3 2 2 1 1 1 1 2 2 3
4 4 4 5 5 4 3 3 4 4 4 4 4 3 3 2 2 3 2 2 2 2 1 1 0 0 1 2 2 3 3 3 3 3 2 2 2 1 1 2 2 2 3
3 4 4 5 5 4 4 3 4 4 4 4 4 3 3 3 3 3 2 2 2 1 1 1 1 1 1 1 2 3 3 2 2 2 2 1 1 0 1 2 2 3 3
3 3 4 4 4 4 3 3 3 3 3 3 3 3 3 3 4 3 2 2 2 2 2 2 2 2 2 2 2 3 3 3 2 2 1 1 0 0 1 2 2 3 4
3 3 3 3 3 3 3 3 3 4 3 3 3 4 4 4 4 3 3 3 3 3 3 3 3 4 5 4 3 2 2 2 2 1 1 0 1 1 2 2 2 3 4
2 3 3 3 2 2 3 3 3 3 3 3 3 4 4 3 4 4 4 3 3 3 3 4 3 4 4 4 3 3 2 2 2 1 0 1 1 2 2 2 2 3 3
2 2 2 2 1 1 2 2 3 3 2 2 3 3 3 3 3 3 4 3 3 3 4 5 5 5 4 4 3 3 3 2 2 1 1 1 2 2 2 2 2 2 3
2 2 1 1 1 1 1 2 1 2 2 2 2 2 2 2 2 3 3 3 3 4 4 4 5 5 4 3 2 2 3 3 3 2 2 2 2 2 2 2 2 2 3
2 2 1 1 1 1 1 1 1 1 2 2 2 1 1 1 2 3 3 3 4 4 4 4 4 5 4 3 2 2 2 2 2 2 2 2 2 2 2 2 3 3 3
2 2 1 1 1 1 1 1 1 1 1 2 2 1 1 2 2 2 3 3 4 4 4 4 4 4 4 4 3 3 2 2 2 2 1 2 2 2 2 3 3 3 4
4 3 2 0 1 0 0 0 0 0 2 2 1 1 1 2 2 2 2 3 3 3 3 3 3 4 4 4 3 3 2 2 2 2 2 2 2 2 3 3 4 4 4
5 4 3 2 1 0 0 0 0 0 1 2 2 1 1 1 2 2 2 2 2 3 3 3 3 3 4 4 4 3 2 2 2 2 3 3 3 3 4 4 5 5 5
5 5 4 3 3 2 1 1 1 1 2 2 2 0 0 0 1 1 1 1 1 2 3 3 3 4 4 5 4 3 3 2 2 3 4 4 4 4 5 5 5 6 6
7 5 4 4 3 3 2 1 1 1 1 1 0 0 1 1 1 2 2 1 1 2 3 3 3 4 4 5 5 4 3 2 3 3 4 5 5 5 6 6 6 6 7
7 6 5 5 4 3 3 2 2 2 2 1 1 1 1 1 2 2 2 2 2 2 3 3 3 4 4 4 4 4 4 4 4 4 5 5 6 6 7 7 7 7 7
8 6 5 5 5 4 3 2 2 2 2 2 1 1 1 2 2 2 2 2 2 3 3 3 3 4 5 5 4 4 4 5 5 6 6 6 7 7 8 8 8 8 8
8 7 6 5 5 4 3 3 2 2 2 2 2 2 1 2 2 2 2 2 3 3 3 3 3 4 4 5 5 5 5 5 6 6 7 7 8 8 8 9 9 9 10
8 7 6 5 5 5 4 4 3 3 2 2 2 2 2 2 3 3 3 3 3 3 3 3 3 4 5 5 6 6 6 6 7 8 8 8 9 9 9 10 10 11 12
8 7 6 5 5 5 5 5 4 3 3 3 2 2 2 3 3 3 3 3 3 3 3 4 4 4 5 6 6 6 7 8 9 9 9 9 10 10 11 11 11 12 13
8 7 6 6 5 5 5 5 4 3 3 3 3 3 3 3 3 3 3 3 3 4 4 5 5 5 6 7 7 8 8 9 9 10 10 10 11 11 12 12 12 12 13
7 7 6 6 7 6 6 6 5 4 3 4 4 4 3 4 4 4 5 5 5 6 7 7 7 7 7 8 9 10 10 10 10 11 11 11 12 13 13 13 14 13 14
6 7 7 7 7 7 7 6 6 5 5 5 4 4 4 4 5 6 7 7 7 7 8 8 8 8 8 9 10 11 12 12 12 12 12 13 13 14 15 15 15 15 15
6 7 7 8 8 8 7 6 6 6 6 6 6 6 5 5 7 7 8 8 9 9 9 10 10 10 10 11 11 12 13 13 13 13 14 14 14 15 16 16 17 17 16
7 7 8 8 8 8 7 7 7 7 8 8 8 7 7 8 8 8 9 9 9 10 11 11 11 11 12 12 13 13 14 14 15 15 16 16 16 16 17 17 18 18 17
Wind_Direction
108 124 133 134 132 132 135 145 152 153 153 144 139 136 134 140 144 145 143 147 151 152 152 165 182 193 185 182 184 187 191 200 210 213 216 230 198 175 139 115 293 312 314
118 115 126 137 126 123 129 141 151 146 137 132 128 130 129 132 141 148 146 158 157 150 148 166 198 185 183 181 189 200 199 202 213 219 224 220 211 219 201 291 298 301 304
128 125 126 129 124 122 120 122 132 140 135 126 118 116 118 126 135 138 152 164 157 155 154 173 191 184 185 186 190 202 202 207 214 212 210 210 227 225 246 279 293 304 310
124 127 132 131 130 128 122 119 122 122 121 113 108 110 112 122 133 130 153 166 142 136 152 154 184 223 179 179 188 194 197 205 205 204 196 209 215 235 258 280 300 315 313
132 136 139 137 134 132 124 124 125 123 114 105 107 104 101 100 108 119 135 135 116 81 33 57 54 88 87 134 172 181 186 188 192 196 179 168 179 210 276 290 305 306 305
140 147 149 140 136 134 129 130 132 128 119 112 105 97 98 102 110 124 129 121 97 68 54 40 59 72 81 93 123 158 172 170 163 176 165 174 331 302 310 306 301 303 306
133 145 141 143 137 136 128 126 121 117 116 114 104 100 98 108 120 114 106 108 85 73 72 68 64 70 67 70 89 115 128 135 143 154 110 13 4 4 358 336 320 313 318
116 148 140 115 106 132 150 137 125 120 119 122 119 121 118 121 96 94 88 87 88 84 70 70 69 64 77 77 81 100 112 123 136 115 320 340 340 350 347 341 337 332 336
86 132 127 103 97 120 148 138 133 134 134 126 111 105 96 87 87 85 75 73 80 76 72 69 67 61 68 78 76 90 96 96 107 88 16 350 354 4 356 349 339 328 337
89 96 112 124 107 100 111 114 121 141 137 137 131 122 102 93 85 72 65 63 68 65 66 66 66 61 61 76 80 85 86 84 72 64 47 34 32 26 24 14 351 330 331
74 94 136 155 130 97 105 82 109 136 137 141 131 116 103 92 79 65 60 54 74 75 69 66 63 54 57 73 75 73 70 71 68 70 50 39 30 20 13 1 350 337 324
46 62 133 173 158 122 90 72 93 161 166 155 130 105 84 77 68 64 53 56 72 74 73 64 59 57 64 55 50 59 66 61 58 50 28 34 16 1 351 344 335 327 325
35 31 40 86 163 129 317 16 108 199 178 173 149 131 89 74 72 70 57 49 54 58 58 52 55 48 41 28 31 45 53 53 31 36 14 2 358 351 345 343 333 324 321
39 36 31 41 59 48 321 289 285 253 181 178 182 156 102 72 64 49 41 48 45 40 43 49 42 34 25 22 26 34 40 24 13 11 358 348 342 336 329 328 329 320 315
26 28 28 28 20 354 308 253 260 250 168 162 192 209 54 66 19 358 5 10 38 38 38 42 32 22 20 17 18 26 24 12 354 345 344 338 330 327 320 312 314 314 312
22 25 19 13 6 0 9 16 86 106 97 111 118 9 22 24 2 351 358 13 23 25 25 30 21 6 6 3 2 9 4 353 336 334 333 331 327 322 318 309 310 313 312
17 17 16 15 24 27 34 48 68 71 75 75 53 21 18 25 17 15 8 8 5 4 3 1 2 1 354 354 353 353 351 342 333 331 328 326 322 320 317 312 307 309 310
21 17 14 8 17 21 29 42 52 46 43 42 38 12 23 21 13 17 15 6 1 357 357 353 347 343 350 348 343 340 340 340 330 325 325 319 315 313 314 315 312 310 309
24 22 15 18 16 18 20 16 16 7 4 359 6 4 360 355 351 356 358 347 346 346 342 345 338 338 335 333 333 329 328 329 326 325 324 319 311 310 310 310 312 311 306
20 24 29 27 21 19 18 6 5 4 2 344 347 347 347 341 337 334 339 333 323 322 325 327 326 326 330 333 333 329 328 326 324 323 321 316 317 316 312 307 306 308 307
14 21 27 26 26 22 13 2 1 358 0 347 328 324 327 326 332 330 333 346 342 324 315 321 322 326 326 327 329 329 325 320 319 317 315 314 313 312 308 304 302 305 308
10 12 18 20 18 14 0 355 354 342 336 340 333 319 320 321 321 325 319 328 333 331 327 323 316 316 318 316 318 319 321 320 321 320 317 315 312 311 311 307 303 304 304
2 4 8 12 14 5 353 347 346 344 339 332 323 314 318 321 314 318 308 305 309 317 319 320 320 319 317 314 315 316 318 317 319 317 313 312 313 313 311 309 306 305 305
351 355 358 359 357 356 353 349 346 345 338 335 332 323 317 310 309 311 310 303 299 306 311 312 312 314 313 313 312 311 313 315 317 316 314 311 310 310 309 307 305 304 303
337 343 346 349 347 346 349 347 344 343 335 331 325 318 311 305 304 308 308 305 302 303 307 309 308 308 307 307 309 309 309 312 313 315 315 313 312 311 309 306 304 303 300
328 329 331 334 335 336 338 337 335 331 328 324 322 319 311 308 304 305 306 304 304 305 307 308 307 307 305 305 306 307 308 308 308 310 312 312 311 311 309 307 305 303 301